Serre-Chevalier, France 16 day weather forecast

Slopes altitude range 1200 m - 2735m

Number of lifts: 63 Pistes: 250km

In some cases the lift and piste totals shown are for the ski domain (e.g. Three Valleys) rather than individual resort (e.g. Courchevel)

Overview

The 16 day weather forecast is fully updated 4 times every day.

    • Tue 17 JUL 2018
    • Tue 17
    • 8C 16C
    • Wed 18 JUL 2018
    • Wed 18
    • 10C 18C
    • Thu 19 JUL 2018
    • Thu 19
    • 11C 18C
    • Fri 20 JUL 2018
    • Fri 20
    • 12C 18C
    • Sat 21 JUL 2018
    • Sat 21
    • 10C 15C
    • Sun 22 JUL 2018
    • Sun 22
    • 8C 16C
    • Mon 23 JUL 2018
    • Mon 23
    • 12C 18C
    • Tue 24 JUL 2018
    • Tue 24
    • 12C 17C
    • Wed 25 JUL 2018
    • Wed 25
    • 12C 14C
    • Thu 26 JUL 2018
    • Thu 26
    • 10C 16C
    • Fri 27 JUL 2018
    • Fri 27
    • 7C 20C
    • Sat 28 JUL 2018
    • Sat 28
    • 10C 18C
    • Sun 29 JUL 2018
    • Sun 29
    • 10C 21C
    • Mon 30 JUL 2018
    • Mon 30
    • 10C 24C
    • Tue 31 JUL 2018
    • Tue 31
    • 11C 23C
    • Wed 01 AUG 2018
    • Wed 01
    • 11C 24C

Date:

Time Type 0°C level Temp Chill Snow Cloud Speed Gust Dir Press
3:00 3863m 5°C 5_9 0cm 86% 9mph 10mph 1015mB
6:00 3868m 5°C 5_10 0cm 76% 10mph 12mph 1015mB
9:00 3881m 8°C 8_10 0cm 34% 10mph 10mph 1015mB
12:00 3806m 16°C 16_9 0cm 17% 9mph 8mph 1014mB
15:00 3923m 16°C 16_10 0cm 4% 10mph 8mph 1014mB
18:00 4060m 16°C 16_9 0cm 6% 9mph 9mph 1014mB
21:00 4175m 8°C 8_5 0cm 9% 5mph 7mph 1016mB
0:00 4194m 5°C 5_4 0cm 7% 4mph 5mph 1017mB
3:00 4178m 4°C 4_2 0cm 0% 2mph 3mph 1016mB
6:00 4176m 3°C 3_2 0cm 0% 2mph 2mph 1016mB
9:00 4157m 10°C 10_1 0cm 0% 1mph 2mph 1016mB
12:00 3998m 18°C 18_4 0cm 0% 4mph 4mph 1014mB
15:00 4031m 18°C 18_5 0cm 0% 5mph 5mph 1014mB
18:00 3971m 18°C 18_6 0cm 3% 6mph 7mph 1014mB
21:00 4030m 8°C 8_4 0cm 0% 4mph 6mph 1016mB
0:00 4008m 6°C 6_2 0cm 0% 2mph 3mph 1017mB
3:00 4040m 6°C 6_5 0cm 0% 5mph 6mph 1016mB
6:00 4084m 5°C 5_4 0cm 0% 4mph 5mph 1016mB
9:00 4102m 11°C 11_5 0cm 0% 5mph 5mph 1015mB
12:00 4023m 18°C 18_5 0cm 0% 5mph 4mph 1015mB
15:00 4062m 19°C 19_5 0cm 0% 5mph 5mph 1014mB
18:00 3986m 19°C 19_4 0cm 17% 4mph 4mph 1014mB
21:00 4027m 9°C 9_0 0cm 10% 0mph 1mph 1016mB
0:00 4111m 8°C 8_3 0cm 9% 3mph 4mph 1016mB
3:00 4046m 8°C 8_3 0cm 53% 3mph 4mph 1016mB
6:00 3929m 7°C 7_4 0cm 58% 4mph 4mph 1016mB
9:00 3899m 12°C 12_6 0cm 51% 6mph 7mph 1015mB
12:00 3987m 18°C 18_9 0cm 48% 9mph 12mph 1013mB
15:00 3986m 19°C 19_9 0cm 30% 9mph 14mph 1012mB
18:00 3955m 19°C 19_7 0cm 52% 7mph 9mph 1013mB
21:00 3807m 9°C 9_2 0cm 83% 2mph 3mph 1015mB
0:00 3817m 8°C 8_2 0cm 77% 2mph 3mph 1014mB
3:00 3832m 6°C 6_2 0cm 12% 2mph 3mph 1014mB
6:00 3717m 5°C 5_3 0cm 6% 3mph 4mph 1014mB
9:00 3692m 10°C 10_4 0cm 2% 4mph 4mph 1014mB
12:00 3778m 15°C 15_6 0cm 4% 6mph 6mph 1013mB
15:00 3806m 15°C 15_8 0cm 49% 8mph 7mph 1013mB
18:00 3841m 15°C 15_9 0cm 29% 9mph 10mph 1013mB
21:00 3929m 8°C 8_8 0cm 41% 8mph 10mph 1015mB
0:00 3960m 7°C 7_8 0cm 58% 8mph 10mph 1015mB
3:00 3937m 6°C 6_8 0cm 63% 8mph 10mph 1015mB
6:00 4009m 5°C 5_7 0cm 48% 7mph 9mph 1015mB
9:00 4077m 8°C 8_6 0cm 9% 6mph 5mph 1015mB
12:00 4006m 16°C 16_7 0cm 8% 7mph 5mph 1014mB
15:00 4141m 16°C 16_9 0cm 27% 9mph 8mph 1013mB
18:00 4239m 16°C 16_8 0cm 36% 8mph 8mph 1014mB
21:00 4306m 9°C 9_4 0cm 32% 4mph 5mph 1016mB
0:00 4358m 7°C 7_2 0cm 18% 2mph 3mph 1016mB
3:00 4378m 7°C 7_2 0cm 0% 2mph 3mph 1016mB
6:00 4449m 6°C 6_3 0cm 0% 3mph 3mph 1016mB
9:00 4448m 12°C 12_4 0cm 0% 4mph 4mph 1015mB
12:00 4146m 18°C 18_4 0cm 16% 4mph 4mph 1014mB
15:00 4232m 17°C 17_4 0cm 95% 4mph 5mph 1013mB
18:00 4286m 17°C 17_4 0cm 87% 4mph 4mph 1013mB
21:00 4361m 11°C 11_2 0cm 65% 2mph 3mph 1014mB
0:00 4327m 8°C 8_1 0cm 39% 1mph 2mph 1013mB
3:00 4172m 7°C 7_2 0cm 1% 2mph 3mph 1012mB
6:00 4165m 6°C 6_1 0cm 12% 1mph 1mph 1012mB
9:00 4040m 12°C 12_3 0cm 93% 3mph 4mph 1011mB
12:00 3930m 17°C 17_6 0cm 92% 6mph 7mph 1010mB
15:00 3990m 17°C 17_3 0cm 100% 3mph 4mph 1009mB
18:00 4028m 17°C 17_2 0cm 100% 2mph 3mph 1008mB
21:00 4037m 10°C 10_5 0cm 45% 5mph 6mph 1009mB
0:00 4028m 9°C 9_3 0cm 36% 3mph 4mph 1009mB
3:00 3906m 9°C 9_2 0cm 93% 2mph 3mph 1008mB
6:00 3812m 9°C 9_1 0cm 97% 1mph 1mph 1008mB
9:00 3705m 12°C 12_4 0cm 100% 4mph 4mph 1008mB
12:00 3782m 14°C 14_4 0cm 100% 4mph 3mph 1008mB
15:00 3791m 15°C 15_3 0cm 100% 3mph 3mph 1009mB
18:00 3842m 15°C 15_3 0cm 98% 3mph 4mph 1009mB
21:00 3879m 10°C 10_4 0cm 78% 4mph 5mph 1010mB
0:00 3770m 9°C 9_4 0cm 84% 4mph 5mph 1010mB
3:00 3662m 9°C 9_3 0cm 77% 3mph 4mph 1010mB
6:00 3507m 9°C 9_4 0cm 83% 4mph 7mph 1010mB
9:00 3443m 10°C 10_7 0cm 93% 7mph 9mph 1010mB
12:00 3563m 16°C 16_9 0cm 66% 9mph 11mph 1010mB
15:00 3616m 16°C 16_8 0cm 10% 8mph 11mph 1009mB
18:00 3537m 16°C 16_6 0cm 22% 6mph 10mph 1010mB
21:00 3474m 7°C 7_2 0cm 15% 2mph 3mph 1011mB
0:00 3546m 7°C 7_3 0cm 44% 3mph 3mph 1011mB
Afternoon 0mm 0 3968m 20°C 20_5 0cm 65% 5mph 4mph 1011mB
Morning 0.015625mm 0.1875 4082m 11°C 11_5 0cm 66% 5mph 6mph 1013mB
Afternoon 0.046875mm 0.0625 4092m 18°C 18_4 0cm 90% 4mph 4mph 1013mB
Morning 0.0416667mm 0.125 4255m 12°C 12_5 0cm 65% 5mph 6mph 1015mB
Afternoon 0.0833333mm 1 4245m 21°C 21_2 0cm 15% 2mph 2mph 1014mB
Morning 0.359375mm 4.25 4388m 11°C 11_6 0cm 33% 6mph 8mph 1016mB
Afternoon 0mm 0 4382m 24°C 24_2 0cm 5% 2mph 4mph 1014mB
Morning 0mm 0 4363m 12°C 12_4 0cm 0% 4mph 5mph 1016mB
Afternoon 0mm 0 4496m 23°C 23_3 0cm 0% 3mph 4mph 1014mB
Morning 0.00520833mm 0.0625 4483m 13°C 13_3 0cm 70% 3mph 3mph 1015mB
Afternoon 0mm 0 4510m 24°C 24_4 0cm 73% 4mph 5mph 1014mB
Morning 0mm 0 4508m 13°C 13_3 0cm 31% 3mph 4mph 1016mB

16 day outlook at a glance

Forecast issued: 17/07/2018 12:16:03

Chat

Your comments and questions. In a resort? Let us know what it's like!


Characters left 250

For terms and conditions see Readers Comments on the Cookie and privacy policy page.